Find Starlink 38018

NORAD ID: 100421 Int'l Des: 2026-192 Owner: SPXS Country: US Constellation: starlink operational

Aktuelle Ansicht

3D-Globus wird geladen...

About Starlink 38018

Starlink 38018 (NORAD 100421) is a starlink constellation satellite launched Aug 21, 2026 by SPXS of US. with a mass of 575.00 kg.

Nächste Überflüge

Passes for default location (London). Set your location on the main map for personalized predictions.

Höhenverlauf

Loading altitude history...

Zweizeiliger Elementsatz

1 A0421U 26192T 26262.92461115 .00024954 00000-0 45491-3 0 9994
2 A0421 53.1595 309.2799 0001234 86.9617 273.1534 15.49333140 5815
Epoch: 19. Sept. 2026 • Age: 18 hours

Aktueller Status

Höhe 420.7 km
Apogäum / Perigäum N/A
Geschwindigkeit 7.66 km/s
Subsatellitenpunkt 36.05°N, 143.49°W
Startdatum 21. Aug. 2026
Alter 30 days
Typ internet

Technische Details

Klassifizierung Payload
Masse 575.00 kg
Trockenmasse 530.00 kg
Länge 0.30 m
Spannweite 29.00 m
Form ? Box + pan
Hersteller SPXS
Bus-Typ Starlink V2MO
Phasenstatus In Orbit
Besitzer/Staat SPXS/US

Most Searched